Akron, CO

11:13 PM MDT on October 23, 2019 (GMT -0600)
Akron-Washington County

Weather History for KAKO - August, 2019

Change the Weather History Date:

Tuesday, August 20, 2019

  Actual Average Record
Temperature  
Mean Temperature 79 °F 72 °F  
Max Temperature 94 °F 86 °F 97 °F (1987)
Min Temperature 63 °F 58 °F 40 °F (2016)
Degree Days  
Heating Degree Days 0    
Month to date heating degree days 0  
Cooling Degree Days 14    
Month to date cooling degree days 207  
Growing Degree Days 28 (Base 50)    
Moisture  
Dew Point 61 °F    
Average Humidity 63    
Maximum Humidity 93    
Minimum Humidity 32    
Precipitation  
Precipitation 0.00 in 0.06 in 0.42 in (1966)
Month to date precipitation 2.77 1.64  
Year to date precipitation 13.86 12.83  
Snow  
Snow 0.00 in - - ()
Snow Depth 0.00 in    
Sea Level Pressure  
Sea Level Pressure 29.91 in    
Wind  
Wind Speed 10 mph (ENE)    
Max Wind Speed 24 mph    
Max Gust Speed 30 mph    
Visibility 10 miles    
Events      
T = Trace of Precipitation, MM = Missing Value Source: NWS Daily Summary

Daily Weather History Graph

Daily Weather History Graph

Search for Another Location

Airport or City:

Astronomy

Aug. 20, 2019 Rise Set
Actual Time 6:08 AM MDT 7:43 PM MDT
Civil Twilight 5:40 AM MDT 8:11 PM MDT
Nautical Twilight 5:05 AM MDT 8:46 PM MDT
Astronomical Twilight 4:28 AM MDT 9:22 PM MDT
Moon 10:32 PM MDT (8/20) 10:49 AM MDT (8/20)
Length of Visible Light 14h 31m
Length of Day
13h 34m
Waning Gibbous, 77% of the Moon is Illuminated
Aug 20
Waning Gibbous
Aug 23
Last Quarter
Aug 30
New
Sep 5
First Quarter
Sep 13
Full

Hourly Weather History & Observations

Time (MDT) Temp. Heat Index Dew Point Humidity Pressure Visibility Wind Dir Wind Speed Gust Speed Precip Events Conditions
12:53 AM 66.9 °F - 64.0 °F 90% 29.85 in 10.0 mi ESE 9.2 mph - N/A   Clear
1:53 AM 66.0 °F - 62.1 °F 87% 29.84 in 10.0 mi SE 8.1 mph - N/A   Clear
2:53 AM 64.0 °F - 60.1 °F 87% 29.85 in - West 5.8 mph - N/A   Unknown
3:53 AM 64.9 °F - 55.9 °F 73% 29.84 in 10.0 mi WNW 10.4 mph - N/A   Clear
5:53 AM 68.0 °F - 55.0 °F 63% 29.85 in 10.0 mi WNW 8.1 mph - N/A   Clear
7:53 AM 66.9 °F - 57.0 °F 70% 29.92 in 10.0 mi West 9.2 mph - N/A   Clear
8:53 AM 73.0 °F - 59.0 °F 61% 29.93 in 10.0 mi West 9.2 mph - N/A   Clear
9:53 AM 78.1 °F - 60.1 °F 54% 29.94 in - West 6.9 mph - N/A   Unknown
10:53 AM 82.9 °F 82.8 °F 59.0 °F 44% 29.92 in 10.0 mi NW 5.8 mph - N/A   Clear
11:53 AM 88.0 °F 86.9 °F 57.9 °F 36% 29.91 in 10.0 mi Calm Calm - N/A   Clear
12:53 PM 91.9 °F 91.2 °F 59.0 °F 33% 29.88 in 10.0 mi NNE 12.7 mph - N/A   Clear
1:53 PM 91.9 °F 90.6 °F 57.0 °F 31% 29.89 in 10.0 mi ENE 18.4 mph 25.3 mph N/A   Clear
2:53 PM 91.0 °F 90.2 °F 59.0 °F 34% 29.88 in 10.0 mi East 18.4 mph 26.5 mph N/A   Clear
3:53 PM 86.0 °F 86.1 °F 61.0 °F 43% 29.88 in 10.0 mi East 11.5 mph 21.9 mph N/A   Clear
4:53 PM - - - N/A% 30.07 in - North - - N/A   Unknown
5:53 PM - - - N/A% 30.08 in - North - - N/A   Unknown
6:53 PM 81.0 °F 81.9 °F 62.1 °F 52% 29.91 in - North - - N/A   Unknown
7:53 PM 78.1 °F - 66.0 °F 66% 29.92 in 10.0 mi North - - N/A   Unknown
8:53 PM 75.0 °F - 66.9 °F 76% 29.95 in 10.0 mi East 11.5 mph - N/A   Unknown
9:53 PM 73.9 °F - 66.9 °F 79% 29.94 in 10.0 mi East 13.8 mph 24.2 mph N/A   Clear
10:53 PM 72.0 °F - 64.9 °F 78% 29.90 in 10.0 mi East 15.0 mph 24.2 mph N/A   Clear
11:53 PM 69.1 °F - 64.9 °F 87% 29.92 in 10.0 mi East 11.5 mph - N/A   Clear